Погода в Павло-Фёдоровке

Россия / Приморский край     45°07′49″N   133°15′49″E
темп.,
°C
ветер,
м/с
пор.,
м/с
влажн.,
%
обл.,
%
осадки,
мм/ч
давл.,
гПа
погр.,
м
25 мая, ср
ср2501:00+15ссв2393100 0.3 1008105
04:00+14ссз3492100 0.5 1008156
07:00+13св359092 0.1 1008201
10:00+15с4386100 0.1 1008352
13:00+19с4272100 0.0 1007790
16:00+20с546799 0.0 1006908
19:00+19с57745 0.0 1006700
22:00+14ссв4989100 0.1 1007204
26 мая, чт
чт2601:00+13ссв3594100 0.3 100687
04:00+12ссв2295100 0.3 100531
07:00+14св2291100 0.0 100486
10:00+18всв3575100 0.0 1003373
13:00+24юв5750100 0.0 10021088
16:00+22юв6949100 0.0 1000605
19:00+15вюв51288100 0.9 1001408
22:00+14юв399290 2.3 1001283
27 мая, пт
пт2701:00+12ю23955 0.1 100250
04:00+11ю229517 0.5 100122
07:00+13вюв2389100 0.1 1001147
10:00+18ююв3465100 0.1 1001758
13:00+21ю335059 0.3 10001696
16:00+20сз4459100 1.1 998859
19:00+13зюз4895100 4.0 999261
22:00+12юз129447 6.8 99962
28 мая, сб
сб2801:00+11ююв1196100 0.1 99911
04:00+10в1195100 0.1 99910
07:00+12св1190100 0.0 100067
10:00+15з1181100 0.0 1000406
13:00+20з326470 0.1 10001242
16:00+21зюз33582 0.1 9991323
19:00+20юз236714 0.0 999442
22:00+16ююв227656 0.0 100115
29 мая, вс
вс2901:00+13ююз35865 0.0 100285
04:00+13ююв3389100 0.0 100249
07:00+14ююв2784100 0.0 1002197
10:00+19ю456496 0.0 1002551
13:00+23ю4555100 0.0 1002956
16:00+22зюз6968100 0.0 1002440
19:00+18ююв4988100 0.2 1003285
22:00+16ююв41090100 0.2 1004236